Погода в Сумках

Россия / Курганская область     55°02′49″N   65°43′51″E
темп.,
°C
ветер,
м/с
пор.,
м/с
влажн.,
%
обл.,
%
осадки,
мм/ч
давл.,
гПа
погр.,
м
13 мая, чт
чт1323:00+15св335112 0.0 102640
02:00+13ссв1157100 0.0 102610
05:00+13зюз335977 0.0 102722
08:00+18з57475 0.0 1026377
11:00+23зсз68365 0.0 10251621
14:00+26сз78305 0.0 10232369
17:00+26ссз78315 0.0 10232366
20:00+21сз33485 0.0 102332
14 мая, пт
пт1423:00+18в33585 0.0 102527
02:00+16всв22655 0.0 102611
05:00+15в11707 0.0 102711
08:00+20юв115116 0.0 1027267
11:00+25юз22355 0.0 10271242
14:00+27з34305 0.0 10262523
17:00+27юз45305 0.0 10252604
20:00+23ююз47445 0.0 102499
15 мая, сб
сб1523:00+20ююз49465 0.0 1023138
02:00+20юз4849100 0.1 1023110
05:00+17зюз38620 0.6 1023142
08:00+22зсз46465 0.1 1023290
11:00+27з563049 0.1 10221299
14:00+29з562617 0.0 10212479
17:00+29зсз672640 0.0 10202959
20:00+24зсз3443100 0.0 101953
16 мая, вс
вс1623:00+21з45465 0.0 101962
02:00+19з4650100 0.0 101973
05:00+17зсз34577 0.0 102059
08:00+23сз464719 0.0 1020289
11:00+28зсз56355 0.0 10201376
14:00+30зсз56275 0.0 10192483
17:00+30зсз55245 0.0 10192783
20:00+26з33385 0.0 101832
17 мая, пн
пн1723:00+23зюз33385 0.0 101817
02:00+21юз45435 0.0 101846
05:00+19зюз33505 0.0 101842
08:00+24зсз35395 0.0 1018278
11:00+29з45315 0.0 10171130
14:00+31з572594 0.0 10153084
17:00+30з682553 0.0 10133145
20:00+23сз6134328 0.1 1014309